• In Germany
  • List of Countries
  • For 7 days
  • Water Temperature
  • Satellite Maps
  • Weather Map
  • Weather Widgets
  • user-avatar
    Login

    Hourly Weather Amar

    Today, 26 June, Monday

    Time Temperature Precipitation Wind Pressure Humidity
    00:00 +35°C° 0 mm 3 mps 747 mmHg 30%
    01:00 +35°C° 0 mm 4 mps 747 mmHg 30%
    02:00 +35°C° 0 mm 4 mps 747 mmHg 30%
    03:00 +35°C° 0 mm 4 mps 747 mmHg 27%
    04:00 +35°C° 0 mm 5 mps 747 mmHg 27%
    05:00 +35°C° 0 mm 5 mps 747 mmHg 26%
    06:00 +35°C° 0 mm 5 mps 747 mmHg 25%
    07:00 +38°C° 0 mm 6 mps 747 mmHg 23%
    08:00 +40°C° 0 mm 6 mps 748 mmHg 20%
    09:00 +44°C° 0 mm 6 mps 748 mmHg 17%
    10:00 +44°C° 0 mm 6 mps 748 mmHg 16%
    11:00 +45°C° 0 mm 6 mps 748 mmHg 15%
    12:00 +46°C° 0 mm 6 mps 748 mmHg 14%
    13:00 +46°C° 0 mm 6 mps 747 mmHg 15%
    14:00 +46°C° 0 mm 6 mps 747 mmHg 16%
    15:00 +45°C° 0 mm 6 mps 747 mmHg 17%
    16:00 +43°C° 0 mm 5 mps 747 mmHg 20%
    17:00 +42°C° 0 mm 5 mps 747 mmHg 23%
    18:00 +41°C° 0 mm 5 mps 747 mmHg 26%
    19:00 +40°C° 0 mm 4 mps 747 mmHg 27%
    20:00 +38°C° 0 mm 3 mps 747 mmHg 29%
    21:00 +37°C° 0 mm 2 mps 747 mmHg 30%
    22:00 +37°C° 0 mm 3 mps 747 mmHg 28%
    23:00 +37°C° 0 mm 3 mps 747 mmHg 26%

    Tomorrow, 27 June, Tuesday

    Time Temperature Precipitation Wind Pressure Humidity
    00:00 +37°C° 0 mm 4 mps 747 mmHg 24%
    01:00 +37°C° 0 mm 4 mps 747 mmHg 24%
    02:00 +37°C° 0 mm 5 mps 747 mmHg 24%
    03:00 +37°C° 0 mm 5 mps 747 mmHg 25%
    04:00 +37°C° 0 mm 5 mps 747 mmHg 25%
    05:00 +38°C° 0 mm 6 mps 747 mmHg 25%
    06:00 +38°C° 0 mm 6 mps 747 mmHg 25%
    07:00 +40°C° 0 mm 6 mps 747 mmHg 21%
    08:00 +42°C° 0 mm 6 mps 748 mmHg 16%
    09:00 +45°C° 0 mm 7 mps 748 mmHg 12%
    10:00 +46°C° 0 mm 6 mps 748 mmHg 12%
    11:00 +47°C° 0 mm 6 mps 747 mmHg 12%
    12:00 +48°C° 0 mm 6 mps 747 mmHg 12%
    13:00 +48°C° 0 mm 6 mps 747 mmHg 13%
    14:00 +47°C° 0 mm 6 mps 746 mmHg 14%
    15:00 +47°C° 0 mm 6 mps 746 mmHg 15%
    16:00 +46°C° 0 mm 5 mps 746 mmHg 18%
    17:00 +43°C° 0 mm 5 mps 746 mmHg 20%
    18:00 +42°C° 0 mm 5 mps 746 mmHg 23%
    19:00 +41°C° 0 mm 4 mps 746 mmHg 26%
    20:00 +39°C° 0 mm 3 mps 746 mmHg 28%
    21:00 +38°C° 0 mm 3 mps 746 mmHg 31%
    22:00 +38°C° 0 mm 3 mps 746 mmHg 29%
    23:00 +38°C° 0 mm 3 mps 746 mmHg 27%

    Day after tomorrow, 28 June, Wednesday

    Time Temperature Precipitation Wind Pressure Humidity
    00:00 +38°C° 0 mm 3 mps 746 mmHg 26%
    01:00 +38°C° 0 mm 4 mps 746 mmHg 25%
    02:00 +38°C° 0 mm 4 mps 745 mmHg 25%
    03:00 +37°C° 0 mm 5 mps 745 mmHg 25%
    04:00 +38°C° 0 mm 4 mps 745 mmHg 24%
    05:00 +38°C° 0 mm 4 mps 745 mmHg 23%
    06:00 +38°C° 0 mm 4 mps 746 mmHg 23%
    07:00 +41°C° 0 mm 4 mps 746 mmHg 19%
    08:00 +43°C° 0 mm 4 mps 746 mmHg 15%
    09:00 +45°C° 0 mm 4 mps 746 mmHg 11%
    10:00 +47°C° 0 mm 4 mps 746 mmHg 10%
    11:00 +48°C° 0 mm 4 mps 746 mmHg 10%
    12:00 +48°C° 0 mm 3 mps 746 mmHg 9%
    13:00 +48°C° 0 mm 4 mps 745 mmHg 10%
    14:00 +48°C° 0 mm 4 mps 744 mmHg 11%
    15:00 +47°C° 0 mm 4 mps 744 mmHg 13%
    16:00 +45°C° 0 mm 4 mps 744 mmHg 15%
    17:00 +44°C° 0 mm 3 mps 743 mmHg 16%
    18:00 +43°C° 0 mm 3 mps 743 mmHg 18%
    19:00 +41°C° 0 mm 2 mps 744 mmHg 19%
    20:00 +39°C° 0 mm 2 mps 744 mmHg 20%
    21:00 +37°C° 0 mm 1 mps 744 mmHg 22%
    22:00 +37°C° 0 mm 1 mps 744 mmHg 21%
    23:00 +36°C° 0 mm 1 mps 744 mmHg 21%

    29 June, Thursday

    Time Temperature Precipitation Wind Pressure Humidity
    00:00 +35°C° 0 mm 1 mps 744 mmHg 21%
    01:00 +35°C° 0 mm 1 mps 744 mmHg 24%
    02:00 +36°C° 0 mm 2 mps 744 mmHg 27%
    03:00 +35°C° 0 mm 2 mps 744 mmHg 29%
    04:00 +36°C° 0 mm 2 mps 744 mmHg 29%
    05:00 +35°C° 0 mm 1 mps 744 mmHg 28%
    06:00 +35°C° 0 mm 1 mps 744 mmHg 28%
    07:00 +37°C° 0 mm 1 mps 745 mmHg 25%
    08:00 +40°C° 0 mm 1 mps 745 mmHg 23%
    09:00 +41°C° 0 mm 1 mps 745 mmHg 20%
    10:00 +42°C° 0 mm 2 mps 745 mmHg 18%
    11:00 +44°C° 0 mm 3 mps 745 mmHg 16%
    12:00 +45°C° 0 mm 4 mps 745 mmHg 15%
    13:00 +45°C° 0 mm 4 mps 744 mmHg 15%
    14:00 +45°C° 0 mm 4 mps 744 mmHg 15%
    15:00 +45°C° 0 mm 4 mps 743 mmHg 16%
    16:00 +44°C° 0 mm 4 mps 743 mmHg 18%
    17:00 +43°C° 0 mm 3 mps 743 mmHg 20%
    18:00 +42°C° 0 mm 3 mps 743 mmHg 22%
    19:00 +40°C° 0 mm 3 mps 743 mmHg 24%
    20:00 +39°C° 0 mm 2 mps 744 mmHg 26%
    21:00 +37°C° 0 mm 1 mps 744 mmHg 29%
    22:00 +37°C° 0 mm 2 mps 744 mmHg 29%
    23:00 +37°C° 0 mm 2 mps 743 mmHg 30%

    30 June, Friday

    Time Temperature Precipitation Wind Pressure Humidity
    00:00 +37°C° 0 mm 3 mps 743 mmHg 31%
    01:00 +36°C° 0 mm 2 mps 743 mmHg 34%
    02:00 +35°C° 0 mm 2 mps 743 mmHg 38%
    03:00 +34°C° 0 mm 2 mps 743 mmHg 41%
    04:00 +34°C° 0 mm 1 mps 743 mmHg 39%
    05:00 +34°C° 0 mm 1 mps 743 mmHg 36%
    06:00 +35°C° 0 mm 1 mps 744 mmHg 33%
    07:00 +37°C° 0 mm 1 mps 744 mmHg 30%
    08:00 +40°C° 0 mm 2 mps 744 mmHg 26%
    09:00 +41°C° 0 mm 2 mps 744 mmHg 22%
    10:00 +42°C° 0 mm 2 mps 744 mmHg 20%
    11:00 +43°C° 0 mm 2 mps 744 mmHg 18%
    12:00 +45°C° 0 mm 3 mps 743 mmHg 17%
    13:00 +46°C° 0 mm 3 mps 743 mmHg 16%
    14:00 +46°C° 0 mm 3 mps 743 mmHg 15%
    15:00 +46°C° 0 mm 3 mps 742 mmHg 15%
    16:00 +45°C° 0 mm 3 mps 742 mmHg 17%
    17:00 +44°C° 0 mm 3 mps 742 mmHg 19%
    18:00 +43°C° 0 mm 3 mps 742 mmHg 22%
    19:00 +40°C° 0 mm 3 mps 743 mmHg 25%
    20:00 +39°C° 0 mm 3 mps 743 mmHg 29%
    21:00 +38°C° 0 mm 2 mps 743 mmHg 33%
    22:00 +37°C° 0 mm 2 mps 743 mmHg 34%
    23:00 +37°C° 0 mm 2 mps 743 mmHg 35%

    1 July, Saturday

    Time Temperature Precipitation Wind Pressure Humidity
    00:00 +36°C° 0 mm 2 mps 743 mmHg 36%
    01:00 +35°C° 0 mm 1 mps 743 mmHg 37%
    02:00 +34°C° 0 mm 1 mps 743 mmHg 38%
    03:00 +34°C° 0 mm 1 mps 742 mmHg 39%
    04:00 +34°C° 0 mm 1 mps 743 mmHg 38%
    05:00 +35°C° 0 mm 1 mps 743 mmHg 36%
    06:00 +35°C° 0 mm 1 mps 744 mmHg 34%
    07:00 +37°C° 0 mm 1 mps 744 mmHg 31%
    08:00 +39°C° 0 mm 1 mps 744 mmHg 28%
    09:00 +41°C° 0 mm 1 mps 744 mmHg 24%
    10:00 +42°C° 0 mm 1 mps 744 mmHg 22%
    11:00 +43°C° 0 mm 1 mps 744 mmHg 20%
    12:00 +45°C° 0 mm 2 mps 744 mmHg 18%
    13:00 +45°C° 0 mm 2 mps 743 mmHg 17%
    14:00 +45°C° 0 mm 2 mps 743 mmHg 17%
    15:00 +46°C° 0 mm 2 mps 743 mmHg 16%
    16:00 +45°C° 0 mm 2 mps 743 mmHg 18%
    17:00 +44°C° 0 mm 3 mps 743 mmHg 20%
    18:00 +43°C° 0 mm 3 mps 744 mmHg 21%
    19:00 +40°C° 0 mm 2 mps 744 mmHg 24%
    20:00 +39°C° 0 mm 2 mps 744 mmHg 27%
    21:00 +37°C° 0 mm 1 mps 745 mmHg 30%
    22:00 +36°C° 0 mm 1 mps 744 mmHg 31%
    23:00 +35°C° 0 mm 1 mps 744 mmHg 32%
    Show more